M I D A S
Marine Information and Data Acquisition System
Tripno 148 of the Zeeleeuw from 2001-08-13 06:59:03 to 2001-08-13 17:40:00
Back to CruiseResearch ActivitiesStationsMapUnderway DataData graphs

EquipmentUnitsComment
TimeDGPSUTC
LatitudeDGPSDM.mWGS84
LongitudeDGPSDM.mWGS84
HeadingGyrodeg 
SOGDGPSknotsSpeed over ground
COGDGPSdegCourse over ground
DepthEcho soundermeters200 kHz
Missing or incorrect values are displayed as -999
Navigation data collected by the RV Zeeleeuw from 2001-08-13 06:59:03 to 2001-08-13 17:40:00
Time Latitude Longitude Heading SOG COG Depth
2001-08-13 07:00:10 51°13.677 2°55.924 359.3   91.9 -999
2001-08-13 07:01:10 51°13.676 2°55.924     153.8 -999
2001-08-13 07:02:30 51°13.677 2°55.924 0.5   352.5 -999
2001-08-13 07:03:30 51°13.677 2°55.923 0.5   206.9 -999
2001-08-13 07:04:30 51°13.677 2°55.923 0.3   331.5 -999
2001-08-13 07:05:30 51°13.677 2°55.922 78   172.5 -999
2001-08-13 07:06:30 51°13.676 2°55.923 130.2   40.4 -999
2001-08-13 07:07:30 51°13.676 2°55.923 130.5   182.2 -999
2001-08-13 07:08:30 51°13.676 2°55.923 130.7   168.8 -999
2001-08-13 07:09:30 51°13.676 2°55.923 130.5   305.8 -999
2001-08-13 07:10:26 51°13.676 2°55.923 130   337 -999
2001-08-13 07:11:25 51°13.677 2°55.923 131.2   213.2 -999
2001-08-13 07:12:36 51°13.677 2°55.923 131   347.6 -999
2001-08-13 07:14:48 51°13.677 2°55.923 129   227.6 8.4
2001-08-13 07:15:48 51°13.677 2°55.923 129.2   73 -999
2001-08-13 07:16:48 51°13.676 2°55.923 130.5   187 -999
2001-08-13 07:17:48 51°13.676 2°55.922 131   213.7 -999
2001-08-13 07:18:48 51°13.677 2°55.922 130.2   32 -999
2001-08-13 07:19:48 51°13.677 2°55.923 130.7   31.4 -999
2001-08-13 07:20:48 51°13.677 2°55.923 130.2   35.3 -999
2001-08-13 07:21:48 51°13.677 2°55.923 130   55.3 -999
2001-08-13 07:22:48 51°13.676 2°55.923 130.2   94.7 -999
2001-08-13 07:23:46 51°13.676 2°55.923 130.2   92.1 4.9
2001-08-13 07:24:47 51°13.676 2°55.923 131   85.4 4.9
2001-08-13 07:25:48 51°13.677 2°55.923 130.5   86.6 5.1
2001-08-13 07:26:48 51°13.677 2°55.922 131   225.3 -999
2001-08-13 07:27:46 51°13.677 2°55.923 131.5   160.8 5.2
2001-08-13 07:28:46 51°13.677 2°55.923 131.8   203.8 5.5
2001-08-13 07:29:47 51°13.677 2°55.922 131.7   80.6 5.3
2001-08-13 07:30:46 51°13.677 2°55.923 130 0.1 255.4 5.2
2001-08-13 07:31:46 51°13.677 2°55.924 130.3   278.7 5.3
2001-08-13 07:32:48 51°13.676 2°55.923 129.8   52.6 5.2
2001-08-13 07:33:46 51°13.677 2°55.925 130.2   275.2 5.2
2001-08-13 07:34:46 51°13.677 2°55.925 128.5   238.9 5.3
2001-08-13 07:35:46 51°13.677 2°55.924 130.5   245 5.1
2001-08-13 07:36:46 51°13.677 2°55.924 130.2   254.3 5.3
2001-08-13 07:37:47 51°13.677 2°55.925 129.7 0.1 75.2 5.3
2001-08-13 07:38:47 51°13.676 2°55.925 121.2 0.1 166.7 5.2
2001-08-13 07:39:48 51°13.674 2°55.925 107 0.1 169.6 5
2001-08-13 07:40:48 51°13.674 2°55.923 99 0.3 282.7 5.1
2001-08-13 07:41:48 51°13.677 2°55.907 99.2 0.8 292.4 -999
2001-08-13 07:42:46 51°13.683 2°55.852 89.2 3.3 272.5 5.1
2001-08-13 07:43:48 51°13.679 2°55.776 72.5 2.5 257.5 -999
2001-08-13 07:44:48 51°13.682 2°55.751 29.2 2.2 19.7 -999
2001-08-13 07:45:46 51°13.754 2°55.716 334.5 5.9 331.5 5.2
2001-08-13 07:46:48 51°13.848 2°55.63 337 6.5 333.1 5.2
2001-08-13 07:47:48 51°13.951 2°55.554 338.7 7 335.8 -999
2001-08-13 07:48:48 51°14.059 2°55.478 340.3 7.1 336.5 5.2
2001-08-13 07:49:48 51°14.164 2°55.397 333 7 329.9 5.4
2001-08-13 07:50:48 51°14.254 2°55.284 319.5 6.9 317.7 5
2001-08-13 07:51:48 51°14.328 2°55.151 312.2 6.6 310.5 4.8
2001-08-13 07:52:47 51°14.404 2°55.02 314 7.1 314.8 11.5
2001-08-13 07:53:47 51°14.505 2°54.889 324.8 8.2 325.9 10.6
2001-08-13 07:55:28 51°14.673 2°54.766 351.8 4.3 336.3 5.8
2001-08-13 07:56:28 51°14.721 2°54.74 347.5 2.5 346.5 11
2001-08-13 07:57:28 51°14.779 2°54.687 346.5 5.8 327.2 10.7
2001-08-13 07:58:28 51°14.883 2°54.591 351.7 8.2 328.8 11
2001-08-13 07:59:28 51°15.024 2°54.462 354 11 328.3 10
2001-08-13 08:00:28 51°15.194 2°54.298 350.5 12.2 324.5 10
2001-08-13 08:01:28 51°15.367 2°54.124 356.2 12.5 329.2 10.8
2001-08-13 08:02:28 51°15.537 2°53.94 356.3 12.5 329.2 11.8
2001-08-13 08:03:28 51°15.719 2°53.759 359.2 13 331.2 12.4
2001-08-13 08:04:28 51°15.908 2°53.608 4.2 11.8 337.2 -999
2001-08-13 08:05:28 51°16.067 2°53.465 356 11.2 329.2 13.4
2001-08-13 08:06:28 51°16.244 2°53.291 352.7 13.1 325.5 13.6
2001-08-13 08:07:29 51°16.433 2°53.105 356.2 13.2 328.9 13.5
2001-08-13 08:08:28 51°16.617 2°52.929 356.8 13.1 330.9 12.2
2001-08-13 08:09:28 51°16.809 2°52.756 1.7 13.4 334.1 10.8
2001-08-13 08:10:28 51°17.013 2°52.611 1 13.4 333.8 11.5
2001-08-13 08:11:28 51°17.208 2°52.44   13.5 332 11.3
2001-08-13 08:12:28 51°17.402 2°52.266 0.2 13.5 332.6 11.3
2001-08-13 08:13:28 51°17.591 2°52.074 352.3 13.3 324.3 11.2
2001-08-13 08:14:28 51°17.751 2°51.833 341 13.1 313.9 11.6
2001-08-13 08:15:28 51°17.895 2°51.582 337.5 12.9 310.5 11
2001-08-13 08:16:28 51°18.045 2°51.335 339.7 12.9 312.6 -999
2001-08-13 08:17:28 51°18.175 2°51.066 329.7 12.6 302.6 14.1
2001-08-13 08:18:28 51°18.294 2°50.784 332 12.6 306.7 14.4
2001-08-13 08:19:28 51°18.403 2°50.502 336.5 12.8 308.2 14.8
2001-08-13 08:20:28 51°18.52 2°50.224 315.5 12.2 289.5 15.4
2001-08-13 08:21:28 51°18.583 2°49.908 314.8 12.6 287.6 14
2001-08-13 08:22:28 51°18.648 2°49.596 317.7 12.2 290.4 11.4
2001-08-13 08:23:30 51°18.712 2°49.27 315.3 12.6 288.3 -999
2001-08-13 08:24:30 51°18.784 2°48.953 318.5 12.6 291.2 11.6
2001-08-13 08:25:28 51°18.861 2°48.653 318.7 12.7 291.4 14.5
2001-08-13 08:26:28 51°18.945 2°48.343 315.3 12.6 289.7 16.5
2001-08-13 08:27:28 51°19.008 2°48.025 317.2 12.5 290.2 18.4
2001-08-13 08:28:28 51°19.074 2°47.711 318 12.4 290.8 19.7
2001-08-13 08:29:28 51°19.14 2°47.403 311.2 12.1 285 21.6
2001-08-13 08:30:29 51°19.226 2°47.099 320.5 11.9 295.3 21.9
2001-08-13 08:31:28 51°19.284 2°46.791 315.3 12.4 288.7 21.9
2001-08-13 08:32:28 51°19.359 2°46.482 319.2 12.3 293.4 21.5
2001-08-13 08:33:28 51°19.412 2°46.165 315.8 12.4 289.4 19.3
2001-08-13 08:34:28 51°19.492 2°45.868 322.3 12.3 295 15
2001-08-13 08:35:28 51°19.574 2°45.565 319.2 12.2 291.9 12.3
2001-08-13 08:36:28 51°19.65 2°45.253 318.8 12.8 292.7 15.4
2001-08-13 08:37:30 51°19.725 2°44.932 311.8 11.8 287.4 -999
2001-08-13 08:38:28 51°19.791 2°44.642 314.7 12.5 288.5 23.6
2001-08-13 08:39:28 51°19.861 2°44.339 315.5 12.4 290 24.8
2001-08-13 08:40:28 51°19.91 2°44.018 306.7 12.2 281.6 26.5
2001-08-13 08:41:28 51°19.962 2°43.705 307.3 12.1 281.8 27.1
2001-08-13 08:42:28 51°19.995 2°43.386 308.5 12.3 281.6 26.9
2001-08-13 08:43:30 51°20.05 2°43.052 311.2 12.6 285.7 26.9
2001-08-13 08:44:28 51°20.106 2°42.749 312 12 286.2 25.6
2001-08-13 08:45:28 51°20.157 2°42.43 309.2 12.5 283.2 22.7
2001-08-13 08:46:28 51°20.187 2°42.102 306.5 12.5 279.9 20.3
2001-08-13 08:47:28 51°20.243 2°41.786 311 12 284.9 16.6
2001-08-13 08:48:28 51°20.275 2°41.462 304.8 12.5 278.7 22
2001-08-13 08:49:28 51°20.298 2°41.138 306.5 12.4 280.6 21.3
2001-08-13 08:50:28 51°20.347 2°40.815 303.7 12.5 278.6 28.8
2001-08-13 08:51:28 51°20.348 2°40.491 288.5 12.2 263.2 29.1
2001-08-13 08:52:30 51°20.323 2°40.163 298.3 12.1 272.1 28
2001-08-13 08:53:28 51°20.358 2°39.859 311 12.3 284.9 27.7
2001-08-13 08:54:28 51°20.385 2°39.53 296.2 12.4 270.8 25.3
2001-08-13 08:55:29 51°20.409 2°39.195 302.8 12.5 277 24.6
2001-08-13 08:56:30 51°20.438 2°38.866 308.2 12 283 25
2001-08-13 08:57:28 51°20.478 2°38.557 304 12.3 279.8 22.8
2001-08-13 08:58:28 51°20.511 2°38.232 303.8 12.2 279.7 23.3
2001-08-13 08:59:28 51°20.522 2°37.909 301.7 12.4 275.7 24.4
2001-08-13 09:00:28 51°20.603 2°37.601 322.8 12.7 298.3 24
2001-08-13 09:01:29 51°20.702 2°37.295 322.2 12.6 298.6 23.6
2001-08-13 09:02:28 51°20.81 2°37.016 330.8 12.4 306.6 21.9
2001-08-13 09:03:28 51°20.941 2°36.746 341.8 13.1 315.9 23.5
2001-08-13 09:04:28 51°21.09 2°36.5 339.7 12.8 315.3 26.5
2001-08-13 09:05:28 51°21.284 2°36.333 3.8 13.7 337.6 29.4
2001-08-13 09:06:28 51°21.489 2°36.179 2.8 13.6 336.6 31.3
2001-08-13 09:07:28 51°21.698 2°36.044 11.7 13.6 344.2 32
2001-08-13 09:08:28 51°21.922 2°35.963 14.3 13.9 347 31.5
2001-08-13 09:09:29 51°22.156 2°35.892 14.8 14.1 348.3 30.5
2001-08-13 09:10:29 51°22.366 2°35.765 4 13.5 338.4 29.7
2001-08-13 09:11:28 51°22.58 2°35.649 3.2 13.8 337.3 26.6
2001-08-13 09:12:28 51°22.786 2°35.496 2.2 13.7 335.1 22
2001-08-13 09:13:28 51°22.99 2°35.341 5.7 13.5 338.7 25.2
2001-08-13 09:14:28 51°23.192 2°35.177 0.7 13.5 332.3 31.4
2001-08-13 09:15:28 51°23.37 2°34.966 345.8 13.2 317.3 32.7
2001-08-13 09:16:28 51°23.53 2°34.726 339.7 13.2 313.5 34.7
2001-08-13 09:17:28 51°23.657 2°34.447 327.3 12.9 303.4 31.5
2001-08-13 09:18:28 51°23.775 2°34.16 325.8 12.8 300 33.4
2001-08-13 09:19:29 51°23.892 2°33.866 331.3 12.9 306.8 31.1
2001-08-13 09:20:28 51°24.06 2°33.652 352.5 13.3 327.4 30.7
2001-08-13 09:21:29 51°24.279 2°33.551 17.8 13.8 349.9 31.1
2001-08-13 09:22:28 51°24.504 2°33.507 21 13.9 354.6 28.9
2001-08-13 09:23:28 51°24.731 2°33.542 44.5 13.9 16.1 29.3
2001-08-13 09:24:28 51°24.953 2°33.637 39.2 13.9 10.5 26.9
2001-08-13 09:25:28 51°25.182 2°33.674 31.2 14.2 5.6 24.2
2001-08-13 09:26:29 51°25.41 2°33.736 48.5 13.5 18.3 23.8
2001-08-13 09:27:28 51°25.632 2°33.818 39.5 13.7 11.4 21.6
2001-08-13 09:28:29 51°25.865 2°33.892 41.7 14 11.9 20.5
2001-08-13 09:29:28 51°26.09 2°33.951 36.8 14.2 8.3 21.2
2001-08-13 09:30:28 51°26.313 2°34.051 51.3 13.3 20.6 24.5
2001-08-13 09:31:28 51°26.533 2°34.149 37.8 14 8.7 26.7
2001-08-13 09:32:28 51°26.76 2°34.211 37.3 14.4 8.3 30.6
2001-08-13 09:33:28 51°26.989 2°34.301 40.2 14.2 13.2 31.4
2001-08-13 09:34:29 51°27.217 2°34.407 48.3 14.1 19.7 32.5
2001-08-13 09:35:28 51°27.441 2°34.498 37.2 14 9.6 32.3
2001-08-13 09:36:28 51°27.669 2°34.591 44.8 14.2 16.3 33.6
2001-08-13 09:37:28 51°27.893 2°34.707 43.3 13.9 13.5 34.2
2001-08-13 09:38:29 51°28.128 2°34.789 44.5 14.4 14.6 34.7
2001-08-13 09:39:29 51°28.346 2°34.912 48.8 13.6 19.9 35.3
2001-08-13 09:40:28 51°28.568 2°35.013 34.3 14.2 7.6 34.7
2001-08-13 09:41:28 51°28.796 2°34.98 26.3 13.6 356.6 35.1
2001-08-13 09:42:28 51°29.03 2°35.013 36 14.2 8.2 36.3
2001-08-13 09:43:28 51°29.257 2°35.082 45.3 14 15.8 38.6
2001-08-13 09:44:28 51°29.48 2°35.186 43.2 13.8 14 39.3
2001-08-13 09:45:29 51°29.707 2°35.29 44.7 13.7 16.1 37.5
2001-08-13 09:46:28 51°29.925 2°35.42 45.2 14.4 16.7 40.4
2001-08-13 09:47:28 51°30.151 2°35.511 47.8 13.5 16.4 37.4
2001-08-13 09:48:29 51°30.376 2°35.638 51 14.2 20.8 37
2001-08-13 09:49:30 51°30.597 2°35.77 47.5 13.8 17.9 38.7
2001-08-13 09:50:28 51°30.809 2°35.902 51.7 14 22 38.4
2001-08-13 09:51:29 51°31.038 2°35.994 39.2 13.7 9.6 37.6
2001-08-13 09:52:28 51°31.261 2°36.095 49 14.4 20.1 36.7
2001-08-13 09:53:28 51°31.482 2°36.207 49.7 14.3 20.5 34.6
2001-08-13 09:54:28 51°31.705 2°36.321 43.8 13.9 14.5 37.9
2001-08-13 09:55:28 51°31.925 2°36.436 48.2 13.8 18.9 40.4
2001-08-13 09:56:28 51°32.152 2°36.504 38.5 14 8.8 38.1
2001-08-13 09:57:28 51°32.382 2°36.571 40.2 14.1 11 38.1
2001-08-13 09:58:28 51°32.612 2°36.652 44.8 14 14.7 40.2
2001-08-13 09:59:28 51°32.842 2°36.736 41.7 14.1 12.1 39.6
2001-08-13 10:00:28 51°33.064 2°36.844 46.3 13.7 17.5 39.7
2001-08-13 10:01:28 51°33.291 2°36.903 35 13.7 5.7 40.7
2001-08-13 10:02:28 51°33.519 2°36.938 39.2 13.9 10.6 39.7
2001-08-13 10:03:28 51°33.749 2°37.024 41.8 14.2 12.4 39.4
2001-08-13 10:04:28 51°33.976 2°37.12 37.8 14.1 9.1 40.2
2001-08-13 10:05:30 51°34.218 2°37.144 29.8 14 1.3 38.2
2001-08-13 10:06:28 51°34.443 2°37.166 34.8 13.7 4.9 38.5
2001-08-13 10:07:28 51°34.676 2°37.206 32.2 14.3 2.4 37.7
2001-08-13 10:08:28 51°34.906 2°37.23 34.7 13.6 4.8 36.9
2001-08-13 10:09:28 51°35.135 2°37.282 36.8 14.2 7.7 35.7
2001-08-13 10:10:28 51°35.364 2°37.324 41.5 13.4 11.2 35.2
2001-08-13 10:11:28 51°35.594 2°37.352 32 14.1 3.1 36
2001-08-13 10:12:28 51°35.822 2°37.386 40.8 14.1 10.6 36
2001-08-13 10:13:28 51°36.05 2°37.429 35.2 13.9 6.2 34.6
2001-08-13 10:14:28 51°36.277 2°37.485 35.2 14.1 6.6 35.5
2001-08-13 10:15:28 51°36.506 2°37.509 38.3 13.7 7.7 37.1
2001-08-13 10:16:28 51°36.735 2°37.545 34.7 14.1 5.1 36.4
2001-08-13 10:17:28 51°36.966 2°37.559 37 13.8 7.6 37.1
2001-08-13 10:18:28 51°37.193 2°37.628 40.3 13.9 10.8 37.6
2001-08-13 10:19:28 51°37.417 2°37.705 39.7 14.2 10.7 32.8
2001-08-13 10:20:30 51°37.652 2°37.746 39 13.5 6.9 37.1
2001-08-13 10:21:28 51°37.874 2°37.803 40.8 13.8 11.2 38.1
2001-08-13 10:22:28 51°38.103 2°37.852 36.7 14.1 7.5 36.1
2001-08-13 10:23:28 51°38.329 2°37.894 37.3 13.8 5.9 39.8
2001-08-13 10:24:28 51°38.559 2°37.914 30.5 13.9 2.5 40.5
2001-08-13 10:25:30 51°38.796 2°37.95 42 14.1 12.4 40.2
2001-08-13 10:26:30 51°39.027 2°38 36.5 14 5.7 40.4
2001-08-13 10:27:28 51°39.249 2°38.041 41.7 13.7 10.6 41.2
2001-08-13 10:28:29 51°39.48 2°38.102 32.8 14.2 5.1 43.8
2001-08-13 10:29:30 51°39.71 2°38.155 43.7 13.7 13.4 47.1
2001-08-13 10:30:30 51°39.935 2°38.231 35.3 14 6.8 37.7
2001-08-13 10:31:28 51°40.153 2°38.296 41.5 14 12.8 39.5
2001-08-13 10:32:28 51°40.381 2°38.355 38.3 14.6 9.6 40.1
2001-08-13 10:33:30 51°40.615 2°38.414 35 13.8 5.5 36.9
2001-08-13 10:34:28 51°40.839 2°38.454 34.2 14.3 5.8 39.6
2001-08-13 10:35:28 51°41.072 2°38.491 38.8 13.9 8.9 40.5
2001-08-13 10:36:30 51°41.311 2°38.531 37 13.8 7.9 41.3
2001-08-13 10:37:30 51°41.54 2°38.589 45.2 14.3 14.5 38.5
2001-08-13 10:38:30 51°41.773 2°38.634 35 14.4 4.3 39.7
2001-08-13 10:39:28 51°41.996 2°38.694 40.2 14.2 9.9 41.6
2001-08-13 10:40:30 51°42.233 2°38.744 39.5 13.7 8.5 38.1
2001-08-13 10:41:30 51°42.464 2°38.804 42 13.9 10.6 38.9
2001-08-13 10:42:28 51°42.682 2°38.862 37.3 13.7 9 36.8
2001-08-13 10:43:28 51°42.907 2°38.913 38.8 13.6 8.8 36.6
2001-08-13 10:44:30 51°43.141 2°38.984 41.7 13.5 10.8 38.3
2001-08-13 10:45:30 51°43.367 2°39.051 41 13.7 10.1 36.9
2001-08-13 10:46:30 51°43.59 2°39.125 39.8 13.5 8.6 38.4
2001-08-13 10:47:30 51°43.795 2°39.182 40 10.5 10.4 38.3
2001-08-13 10:48:28 51°43.894 2°39.14 340.7 5.2 319.1 37.9
2001-08-13 10:49:28 51°43.916 2°39.04 278.2 3.2 266.3 35.7
2001-08-13 10:50:28 51°43.878 2°38.993 212.2 4.2 186.4 37.5
2001-08-13 10:51:28 51°43.829 2°39.009 205.2 2.3 164.5 37.2
2001-08-13 10:52:28 51°43.806 2°39.021 212.2 1.1 160.7 36.8
2001-08-13 10:53:30 51°43.783 2°39.028 221.5 1.8 181.6 37.6
2001-08-13 10:54:28 51°43.738 2°39.008 214.7 3.1 185.4 37.5
2001-08-13 10:55:30 51°43.707 2°39.009 222.5 0.9 170.5 36.7
2001-08-13 10:56:30 51°43.704 2°39.019 219.5 0.6 68.7 36.7
2001-08-13 10:57:28 51°43.715 2°39.037 195.2 1.1 36.3 37.6
2001-08-13 10:58:30 51°43.726 2°39.056 173 1 54.5 37.4
2001-08-13 10:59:28 51°43.732 2°39.076 172 0.9 74.4 37.6
2001-08-13 11:00:28 51°43.736 2°39.098 178.8 0.8 81.5 37.8
2001-08-13 11:01:28 51°43.729 2°39.122 198.7 1.6 146.5 38.1
2001-08-13 11:02:30 51°43.691 2°39.176 160.3 3.6 125.4 36.2
2001-08-13 11:03:28 51°43.649 2°39.262 170.2 4.5 135.4 35.9
2001-08-13 11:04:28 51°43.608 2°39.373 158.2 4.9 122.1 39
2001-08-13 11:05:30 51°43.557 2°39.486 157.8 5.2 123.7 38.2
2001-08-13 11:06:28 51°43.467 2°39.674 163.8 10.8 132.8 40.3
2001-08-13 11:07:29 51°43.36 2°39.919 153.2 11.2 125.8 37.4
2001-08-13 11:08:28 51°43.263 2°40.142 164.2 8.3 131.3 37.5
2001-08-13 11:09:30 51°43.197 2°40.204 208.5 3.1 172.2 40.7
2001-08-13 11:10:28 51°43.173 2°40.205 229.2 0.4 153.8 40.7
2001-08-13 11:11:28 51°43.174 2°40.216 225.2 0.7 59.3 40.5
2001-08-13 11:12:30 51°43.186 2°40.234 195 1.1 34.8 39.5
2001-08-13 11:13:30 51°43.199 2°40.248 170.3 0.8 37.3 37.4
2001-08-13 11:14:28 51°43.2 2°40.273 173.3 1.1 97.8 35.6
2001-08-13 11:15:28 51°43.2 2°40.297 178 0.8 84.8 38.8
2001-08-13 11:16:30 51°43.205 2°40.317 177 0.8 62.7 40.6
2001-08-13 11:17:30 51°43.212 2°40.336 175.3 0.9 55.9 42.8
2001-08-13 11:18:28 51°43.186 2°40.407 154.7 7.8 123.4 43.3
2001-08-13 11:19:28 51°43.073 2°40.644 170.7 12.1 140 40.2
2001-08-13 11:20:30 51°42.928 2°40.892 161 12.4 131.7 34.7
2001-08-13 11:21:30 51°42.8 2°41.156 158.5 12.6 130 39.9
2001-08-13 11:22:30 51°42.678 2°41.316 186.2 6.5 153.5 37.4
2001-08-13 11:23:30 51°42.629 2°41.339 215.3 1.5 169.5 36.4
2001-08-13 11:24:30 51°42.617 2°41.348 220.5 0.6 135.7 36.1
2001-08-13 11:25:30 51°42.621 2°41.366 199.3 0.9 53.5 37.2
2001-08-13 11:26:30 51°42.631 2°41.382 172.7 0.9 41.4 38.5
2001-08-13 11:27:30 51°42.623 2°41.434 149 5.3 117.6 38.9
2001-08-13 11:28:30 51°42.509 2°41.56 203 10.6 174.6 39.1
2001-08-13 11:29:29 51°42.318 2°41.499 210.3 12.6 185.6 35.2
2001-08-13 11:30:29 51°42.114 2°41.505 223.5 12.4 195.9 36.5
2001-08-13 11:31:30 51°41.904 2°41.436 215.2 12.7 188.3 36.5
2001-08-13 11:32:30 51°41.7 2°41.347 217 12.9 190.5 37.6
2001-08-13 11:33:28 51°41.503 2°41.268 221.5 12.8 194.2 34.7
2001-08-13 11:34:30 51°41.298 2°41.157 224.8 12.8 197.9 32.6
2001-08-13 11:35:30 51°41.092 2°41.089 213.5 12.4 187.7 28.9
2001-08-13 11:36:30 51°40.885 2°41.017 213.5 12.8 187.8 36
2001-08-13 11:37:28 51°40.726 2°40.971 233 6.8 204.7 34.6
2001-08-13 11:38:30 51°40.68 2°40.922 254.5 1.1 225.9 35.5
2001-08-13 11:39:28 51°40.681 2°40.912 286 0.5 348.5 35
2001-08-13 11:40:30 51°40.691 2°40.92 323.5 0.8 35.1 -999
2001-08-13 11:41:30 51°40.7 2°40.929 338.7 0.8 33.7 -999
2001-08-13 11:42:30 51°40.712 2°40.925 340 1.9 323.4 36.9
2001-08-13 11:43:30 51°40.772 2°40.789 331.7 9.3 304.3 36.3
2001-08-13 11:44:30 51°40.864 2°40.542 327.2 11 297.7 35.4
2001-08-13 11:45:30 51°40.992 2°40.281 341.8 13.1 313.3 37.7
2001-08-13 11:46:28 51°41.126 2°40.013 328 13.2 300.7 36.7
2001-08-13 11:47:30 51°41.244 2°39.724 323.2 10.4 295 38.4
2001-08-13 11:48:30 51°41.277 2°39.565 307.5 3.8 287.7 36.8
2001-08-13 11:49:30 51°41.289 2°39.563 305.7 1.2 53.9 -999
2001-08-13 11:50:30 51°41.294 2°39.586 335.3 0.9 75.6 37.4
2001-08-13 11:51:28 51°41.296 2°39.603 351 0.6 63.2 36.8
2001-08-13 11:52:30 51°41.302 2°39.615 357.5 0.7 38.3 37
2001-08-13 11:53:30 51°41.317 2°39.615 351 2.2 333.5 39.4
2001-08-13 11:54:30 51°41.391 2°39.434 331 10.8 301.6 39.9
2001-08-13 11:55:30 51°41.508 2°39.147 334 13 305.2 36.1
2001-08-13 11:56:30 51°41.637 2°38.859 334.3 13.3 304.9 37
2001-08-13 11:57:30 51°41.763 2°38.571 338.5 12.8 309.7 39.2
2001-08-13 11:58:30 51°41.858 2°38.361 325.2 7 298.9 39.2
2001-08-13 11:59:30 51°41.873 2°38.311 295.3 0.8 327.6 39
2001-08-13 12:00:30 51°41.884 2°38.308 316.3 0.7 0.3 -999
2001-08-13 12:01:30 51°41.893 2°38.311 337.7 0.5 17.6 38.9
2001-08-13 12:02:30 51°41.903 2°38.317 346.7 0.6 12.7 39.1
2001-08-13 12:03:30 51°41.925 2°38.227 294.5 6.4 271.3 38.3
2001-08-13 12:04:30 51°41.839 2°38.127 205.3 7.5 181.5 38.8
2001-08-13 12:05:28 51°41.704 2°38.105 220.8 8.6 193.4 38.8
2001-08-13 12:06:30 51°41.55 2°38.067 215.2 9.1 188.2 38.3
2001-08-13 12:07:30 51°41.402 2°38.007 221.2 9.3 195.8 38
2001-08-13 12:08:30 51°41.249 2°37.939 219.5 9.7 194.1 37.8
2001-08-13 12:09:30 51°41.09 2°37.875 220.7 9.8 194.8 39.3
2001-08-13 12:10:28 51°40.94 2°37.802 221 9.7 195.4 40
2001-08-13 12:11:29 51°40.789 2°37.731 222.2 9.5 195.2 39
2001-08-13 12:12:30 51°40.639 2°37.662 221.8 9 196.4 37.6
2001-08-13 12:13:28 51°40.49 2°37.606 222.5 9.6 195.3 38.9
2001-08-13 12:14:30 51°40.335 2°37.533 219.5 9.3 193.1 40
2001-08-13 12:15:30 51°40.196 2°37.46 227.2 8.1 200.1 39
2001-08-13 12:16:30 51°40.117 2°37.423 222.2 3.6 195 38.9
2001-08-13 12:17:30 51°40.023 2°37.395 216.3 7.3 188.4 40.4
2001-08-13 12:18:30 51°39.951 2°37.381 216 2.9 186.5 39.3
2001-08-13 12:19:30 51°39.942 2°37.39 203.2 0.5 94.8 39.5
2001-08-13 12:20:30 51°39.944 2°37.397 175.3 0.3 57.9 39.5
2001-08-13 12:21:28 51°39.946 2°37.402 154.3 0.2 55.5 39.2
2001-08-13 12:22:29 51°39.948 2°37.409 143 0.2 75.2 39.8
2001-08-13 12:23:29 51°39.948 2°37.416 149.8 0.3 102.2 39.8
2001-08-13 12:24:30 51°39.9 2°37.543 152.2 8.7 125.9 40.1
2001-08-13 12:25:29 51°39.799 2°37.755 152.7 10.6 126.1 44.8
2001-08-13 12:26:29 51°39.688 2°37.982 157.5 10.8 131.3 46.3
2001-08-13 12:27:29 51°39.579 2°38.21 154.7 10.7 129.2 39.3
2001-08-13 12:28:29 51°39.486 2°38.388 161 6.3 133.3 42
2001-08-13 12:29:29 51°39.444 2°38.444 186 1.1 140.8 41.9
2001-08-13 12:30:29 51°39.444 2°38.458 176.8 0.6 75.2 41.2
2001-08-13 12:31:29 51°39.447 2°38.466 150.5 0.3 32.4 40.4
2001-08-13 12:32:29 51°39.451 2°38.471 141.8 0.3 45.6 39.5
2001-08-13 12:33:29 51°39.454 2°38.478 142.3 0.4 68.8 39.2
2001-08-13 12:34:29 51°39.44 2°38.526 149.8 5.5 122.5 37.3
2001-08-13 12:35:29 51°39.331 2°38.714 159.8 10.9 132.8 40.1
2001-08-13 12:36:29 51°39.21 2°38.943 158.3 11.4 132.7 35.2
2001-08-13 12:37:29 51°39.074 2°39.16 160 11.5 135.4 36.1
2001-08-13 12:38:29 51°38.954 2°39.388 156.7 10.2 131.8 35.9
2001-08-13 12:39:30 51°38.862 2°39.518 173.5 5.5 147 32.5
2001-08-13 12:40:30 51°38.817 2°39.555 191.7 1.3 153.9 36.1
2001-08-13 12:41:29 51°38.81 2°39.566 181.7 0.6 112.3 36.1
2001-08-13 12:42:29 51°38.81 2°39.576 158.8 0.3 75.6 36.2
2001-08-13 12:43:30 51°38.81 2°39.583 148.7 0.3 75.4 35.2
2001-08-13 12:44:29 51°38.81 2°39.591 146.8 0.3 98.5 34.7
2001-08-13 12:45:29 51°38.807 2°39.601 151.8 0.4 118.4 35
2001-08-13 12:46:29 51°38.804 2°39.612 151.8 0.4 108.9 34.5
2001-08-13 12:47:29 51°38.794 2°39.637 151 2.2 124 34.7
2001-08-13 12:48:29 51°38.734 2°39.706 180.8 8.2 154.8 37.1
2001-08-13 12:49:29 51°38.545 2°39.718 210 12.4 183.8 32.4
2001-08-13 12:50:29 51°38.331 2°39.666 218.5 13.2 192.2 -999
2001-08-13 12:51:31 51°38.106 2°39.616 210.5 12.9 183.6 -999
2001-08-13 12:52:29 51°37.895 2°39.565 211.5 13.5 185.4 36.9
2001-08-13 12:53:29 51°37.68 2°39.518 221.3 13.4 195.2 37.5
2001-08-13 12:54:29 51°37.467 2°39.434 210 12.8 184.2 37.1
2001-08-13 12:55:29 51°37.25 2°39.38 217.5 13.2 190.5 37
2001-08-13 12:56:29 51°37.035 2°39.314 220.7 13.1 192.8 38.4
2001-08-13 12:57:29 51°36.823 2°39.23 219 13.1 192.9 37.3
2001-08-13 12:58:29 51°36.614 2°39.141 223.2 13.1 196.8 36
2001-08-13 12:59:30 51°36.395 2°39.04 219 13.6 193.8 35.4
2001-08-13 13:00:29 51°36.182 2°38.952 222.5 12.9 196.8 35.2
2001-08-13 13:01:29 51°35.968 2°38.849 222.5 13.3 196.3 35.7
2001-08-13 13:02:29 51°35.757 2°38.767 221.2 13.4 194.9 36.3
2001-08-13 13:03:29 51°35.544 2°38.689 221.2 13.4 195.3 36.8
2001-08-13 13:04:29 51°35.334 2°38.605 219.8 12.6 194.1 36.9
2001-08-13 13:05:29 51°35.123 2°38.509 222.8 13.2 197.6 37.6
2001-08-13 13:06:29 51°34.907 2°38.427 217.2 13.3 191.1 37.2
2001-08-13 13:07:29 51°34.694 2°38.358 217.7 12.9 191.4 37.4
2001-08-13 13:08:31 51°34.474 2°38.273 220.3 13.2 195.1 37.8
2001-08-13 13:09:29 51°34.268 2°38.186 221.3 13.1 195.2 -999
2001-08-13 13:10:29 51°34.079 2°38.112 220.2 11.8 194.2 35.4
2001-08-13 13:11:29 51°33.87 2°38.02 220.3 13.4 194.2 34
2001-08-13 13:12:30 51°33.656 2°37.925 223.3 13.2 197.6 34.3
2001-08-13 13:13:29 51°33.452 2°37.83 222 13.1 195.7 33.9
2001-08-13 13:14:29 51°33.24 2°37.73 226.8 13.4 200.6 34.3
2001-08-13 13:15:29 51°33.035 2°37.604 229.3 13.4 203.5 33.7
2001-08-13 13:16:29 51°32.829 2°37.482 225.2 13.2 199 33.8
2001-08-13 13:17:29 51°32.622 2°37.356 226 13 200.3 34
2001-08-13 13:18:29 51°32.421 2°37.241 226.8 13.1 200.9 33.3
2001-08-13 13:19:29 51°32.214 2°37.121 227.2 13.5 201 34.6
2001-08-13 13:20:30 51°32.001 2°36.996 226.2 13.3 200.2 34.8
2001-08-13 13:21:30 51°31.795 2°36.883 225.7 12.8 199.2 34.5
2001-08-13 13:22:29 51°31.595 2°36.765 225.7 13.1 198.7 34
2001-08-13 13:23:31 51°31.377 2°36.661 220.3 13.2 193.9 34.8
2001-08-13 13:24:29 51°31.177 2°36.586 219.7 12.9 194.2 34.6
2001-08-13 13:25:29 51°30.966 2°36.497 221.5 13.2 195.3 30.1
2001-08-13 13:26:31 51°30.744 2°36.406 217.5 12.6 191.9 33.6
2001-08-13 13:27:29 51°30.534 2°36.364 201 13.1 176.7 33.7
2001-08-13 13:28:31 51°30.309 2°36.37 206.3 12.6 181.3 -999
2001-08-13 13:29:29 51°30.097 2°36.37 203.8 13.4 179.8 30.2
2001-08-13 13:30:29 51°29.876 2°36.399 196.8 13.4 172.1 29.4
2001-08-13 13:31:29 51°29.656 2°36.45 196.5 13.5 172.5 28.3
2001-08-13 13:32:29 51°29.436 2°36.484 196 13.1 171.2 26.1
2001-08-13 13:33:30 51°29.213 2°36.513 203.8 13.4 180.2 27
2001-08-13 13:34:29 51°28.995 2°36.535 202.5 13.4 177.4 26.2
2001-08-13 13:35:29 51°28.772 2°36.554 199.2 13.5 175.6 26.9
2001-08-13 13:36:29 51°28.551 2°36.597 194.5 13.5 170.8 32.4
2001-08-13 13:37:29 51°28.329 2°36.657 193.3 13.6 169.4 35.5
2001-08-13 13:38:31 51°28.104 2°36.743 191.2 13.2 167 35.8
2001-08-13 13:39:29 51°27.892 2°36.806 193.3 13.5 169.6 35.2
2001-08-13 13:40:29 51°27.676 2°36.903 190 13.1 164.9 33.8
2001-08-13 13:41:29 51°27.474 2°37.052 174.2 13.3 150.7 31.3
2001-08-13 13:42:29 51°27.275 2°37.214 176 13.5 152.5 31.4
2001-08-13 13:43:29 51°27.083 2°37.398 169.5 13.6 146.5 31.1
2001-08-13 13:44:29 51°26.892 2°37.587 171.7 13.4 148.5 31.8
2001-08-13 13:45:30 51°26.698 2°37.774 177.3 13.5 152.1 35
2001-08-13 13:46:29 51°26.511 2°37.963 171.5 13.5 146.7 32.2
2001-08-13 13:47:29 51°26.325 2°38.156 171.2 13.4 147.1 31.7
2001-08-13 13:48:30 51°26.132 2°38.352 168.2 13.5 144.6 31.7
2001-08-13 13:49:29 51°25.949 2°38.543 169.3 13.4 147 32.1
2001-08-13 13:50:29 51°25.766 2°38.744 169.7 13.4 146.9 37.8
2001-08-13 13:51:29 51°25.582 2°38.943 170.3 13.4 147.7 32.3
2001-08-13 13:52:29 51°25.39 2°39.129 170.3 13.6 146.6 29.7
2001-08-13 13:53:30 51°25.191 2°39.302 179.7 13.5 155.4 29
2001-08-13 13:54:29 51°24.995 2°39.463 168.7 13.4 145.9 27.1
2001-08-13 13:55:30 51°24.831 2°39.711 158.3 13.4 134.3 26.6
2001-08-13 13:56:29 51°24.671 2°39.951 161.8 13.2 138.2 25.9
2001-08-13 13:57:29 51°24.519 2°40.209 157.7 13.3 133.6 24.6
2001-08-13 13:58:29 51°24.35 2°40.44 164 13.5 140.2 26.1
2001-08-13 13:59:29 51°24.171 2°40.652 166.3 13.5 143.6 26.4
2001-08-13 14:00:30 51°23.984 2°40.855 165.7 13.3 143.1 28.4
2001-08-13 14:01:29 51°23.832 2°41.104 154.5 13.4 130.6 28
2001-08-13 14:02:29 51°23.682 2°41.364 159 13.4 134.6 27.5
2001-08-13 14:03:29 51°23.532 2°41.62 153.2 13.2 129.1 28.7
2001-08-13 14:04:29 51°23.382 2°41.872 166.8 13.1 141.7 27.3
2001-08-13 14:05:29 51°23.207 2°42.082 165.2 13.2 141.3 27.2
2001-08-13 14:06:31 51°23.046 2°42.331 158 13 134.1 25.7
2001-08-13 14:07:29 51°22.878 2°42.532 174.5 13.2 150.7 25.6
2001-08-13 14:08:29 51°22.697 2°42.731 173.2 13.2 148.6 23.5
2001-08-13 14:09:31 51°22.517 2°42.955 164.7 13.3 139.6 23.4
2001-08-13 14:10:29 51°22.35 2°43.167 164 13.4 140.8 24.6
2001-08-13 14:11:29 51°22.169 2°43.371 167.7 13.3 144.6 25.2
2001-08-13 14:12:29 51°21.985 2°43.566 173.8 13.3 149.9 24.1
2001-08-13 14:13:31 51°21.791 2°43.766 174.3 13.5 149.2 22.9
2001-08-13 14:14:29 51°21.612 2°43.956 180.2 13.4 152.8 22.2
2001-08-13 14:15:29 51°21.453 2°44.199 159.5 13.2 134.6 22.5
2001-08-13 14:16:29 51°21.246 2°44.321 191 13.6 164.9 24
2001-08-13 14:17:29 51°21.029 2°44.409 184.2 13.4 159 25.6
2001-08-13 14:18:29 51°20.835 2°44.573 173.5 13.3 149.1 27
2001-08-13 14:19:29 51°20.682 2°44.819 147.5 13 124.7 26.2
2001-08-13 14:20:29 51°20.566 2°45.106 152.2 12.7 127.5 23.1
2001-08-13 14:21:31 51°20.432 2°45.392 152.2 13 128 23.4
2001-08-13 14:22:29 51°20.302 2°45.659 154 13 130.2 20
2001-08-13 14:23:29 51°20.171 2°45.935 151.7 13.1 126.4 13.9
2001-08-13 14:24:31 51°20.044 2°46.23 148 13 123.1 13.8
2001-08-13 14:25:29 51°19.92 2°46.506 149.3 13.4 124.7 16.6
2001-08-13 14:26:29 51°19.809 2°46.805 144.5 12.8 121.7 19.4
2001-08-13 14:27:29 51°19.689 2°47.098 147 13.1 124.7 21.2
2001-08-13 14:28:29 51°19.568 2°47.389 147 13 123.6 21.5
2001-08-13 14:29:29 51°19.443 2°47.673 149 13.1 123 21
2001-08-13 14:30:29 51°19.323 2°47.963 147 13 122.6 19.5
2001-08-13 14:31:29 51°19.206 2°48.255 150.3 12.8 125.9 17.3
2001-08-13 14:32:30 51°19.083 2°48.552 147.5 13.3 121.7 14.9
2001-08-13 14:33:29 51°18.972 2°48.849 141.5 13.1 118 13.1
2001-08-13 14:34:31 51°18.87 2°49.174 145.2 13.9 119.3 10.7
2001-08-13 14:35:31 51°18.761 2°49.479 145.8 13.3 119.4 10.3
2001-08-13 14:36:29 51°18.647 2°49.765 147 13.3 122.1 11.9
2001-08-13 14:37:29 51°18.526 2°50.062 141.7 13.2 117.6 13.8
2001-08-13 14:38:31 51°18.406 2°50.371 152 13.3 126.7 14.3
2001-08-13 14:39:31 51°18.267 2°50.646 155.7 13.5 131.2 13.4
2001-08-13 14:40:31 51°18.126 2°50.919 154.3 13.6 129.4 12.6
2001-08-13 14:41:29 51°17.993 2°51.184 153.8 13.4 128.9 11.2
2001-08-13 14:42:30 51°17.845 2°51.46 157.8 13.4 130.8 10.1
2001-08-13 14:43:29 51°17.699 2°51.722 157.3 13.4 131.1 9.8
2001-08-13 14:44:31 51°17.536 2°51.988 162.7 13.8 137.1 10.3
2001-08-13 14:45:31 51°17.358 2°52.212 167.5 13.5 142.2 10.5
2001-08-13 14:46:31 51°17.165 2°52.405 176.5 13.5 150.8 9.9
2001-08-13 14:47:31 51°16.968 2°52.583 175.8 13.6 150.4 10.1
2001-08-13 14:48:31 51°16.781 2°52.784 173.8 13.7 148.3 -999
2001-08-13 14:49:31 51°16.59 2°52.975 177.5 13.6 152 11.2
2001-08-13 14:50:29 51°16.403 2°53.154 175 13.4 149.4 12.2
2001-08-13 14:51:29 51°16.213 2°53.346 167.7 13.3 142.4 11.9
2001-08-13 14:52:29 51°16.017 2°53.517 173.7 13.4 147.8 11.4
2001-08-13 14:53:31 51°15.822 2°53.712 171.7 13.4 147.2 11.2
2001-08-13 14:54:29 51°15.633 2°53.883 177.5 13.8 150.6 10.2
2001-08-13 14:55:29 51°15.441 2°54.06 179.5 13.5 153.4 9.2
2001-08-13 14:56:31 51°15.238 2°54.233 180.2 13.5 153.4 13.9
2001-08-13 14:57:31 51°15.042 2°54.401 174 13.2 148.5 -999
2001-08-13 14:58:31 51°14.844 2°54.569 178.5 13.6 150.8 9.2
2001-08-13 14:59:29 51°14.653 2°54.728 180.2 13.3 151.6 8.8
2001-08-13 15:00:31 51°14.459 2°54.916 169 12.9 143.2 -999
2001-08-13 15:01:29 51°14.323 2°55.152 155.8 12.5 128.6 9.6
2001-08-13 15:02:29 51°14.188 2°55.362 141.3 9.9 145.8 9.9
2001-08-13 15:03:29 51°14.057 2°55.464 160.2 7.6 157.8 9.6
2001-08-13 15:04:29 51°13.956 2°55.534 158.7 6.2 156.1 10.3
2001-08-13 15:05:29 51°13.876 2°55.591 159.2 4.8 156.1 9.7
2001-08-13 15:06:29 51°13.813 2°55.637 157.2 3.8 154.3 10.4
2001-08-13 15:07:29 51°13.764 2°55.69 141.5 3.3 138 10.1
2001-08-13 15:08:29 51°13.729 2°55.752 126.2 3 124.9 8
2001-08-13 15:09:29 51°13.706 2°55.818 116.7 2.8 114.6 -999
2001-08-13 15:10:31 51°13.69 2°55.886 113.8 2.6 110.6 6.2
2001-08-13 15:11:29 51°13.678 2°55.92 131.8 0.2 124.3 6.7
2001-08-13 15:12:29 51°13.677 2°55.925 127.8   294.7 5.9
2001-08-13 15:13:31 51°13.677 2°55.924 131   340.2 -999